TimeAKDT,TemperatureF,Dew PointF,Humidity,Sea Level PressureIn,VisibilityMPH,Wind Direction,Wind SpeedMPH,Gust SpeedMPH,PrecipitationIn,Events,Conditions,WindDirDegrees,DateUTC
12:16 AM,12.2,10.4,92,30.00,10.0,Calm,Calm,-,N/A,,Clear,0,2012-10-28 08:16:00
12:36 AM,12.2,10.4,92,30.00,10.0,Calm,Calm,-,N/A,,Clear,0,2012-10-28 08:36:00
12:56 AM,12.2,8.6,85,29.99,10.0,Calm,Calm,-,N/A,,Clear,0,2012-10-28 08:56:00
1:16 AM,12.2,8.6,85,30.00,10.0,Calm,Calm,-,N/A,,Clear,0,2012-10-28 09:16:00
1:36 AM,12.2,10.4,92,29.99,10.0,Calm,Calm,-,N/A,,Clear,0,2012-10-28 09:36:00
1:56 AM,12.2,10.4,92,29.99,10.0,East,3.5,-,N/A,,Clear,80,2012-10-28 09:56:00
2:16 AM,12.2,10.4,92,29.99,10.0,Calm,Calm,-,N/A,,Clear,0,2012-10-28 10:16:00
2:36 AM,12.2,8.6,85,29.98,10.0,Calm,Calm,-,N/A,,Clear,0,2012-10-28 10:36:00
2:56 AM,12.2,8.6,85,29.98,10.0,Calm,Calm,-,N/A,,Clear,0,2012-10-28 10:56:00
3:16 AM,10.4,6.8,85,29.98,10.0,Calm,Calm,-,N/A,,Clear,0,2012-10-28 11:16:00
3:36 AM,12.2,10.4,92,29.98,10.0,Calm,Calm,-,N/A,,Clear,0,2012-10-28 11:36:00
3:56 AM,10.4,5.0,79,29.98,10.0,Calm,Calm,-,N/A,,Clear,0,2012-10-28 11:56:00
4:16 AM,10.4,5.0,79,29.97,10.0,Calm,Calm,-,N/A,,Clear,0,2012-10-28 12:16:00
4:36 AM,10.4,6.8,85,29.97,10.0,Calm,Calm,-,N/A,,Clear,0,2012-10-28 12:36:00
4:56 AM,10.4,6.8,85,29.97,10.0,Calm,Calm,-,N/A,,Clear,0,2012-10-28 12:56:00
5:16 AM,10.4,6.8,85,29.97,10.0,Calm,Calm,-,N/A,,Clear,0,2012-10-28 13:16:00
5:36 AM,10.4,8.6,92,29.97,10.0,ENE,3.5,-,N/A,,Clear,60,2012-10-28 13:36:00
5:56 AM,8.6,6.8,92,29.97,10.0,Calm,Calm,-,N/A,,Clear,0,2012-10-28 13:56:00
6:16 AM,10.4,6.8,85,29.97,10.0,Calm,Calm,-,N/A,,Clear,0,2012-10-28 14:16:00
6:36 AM,10.4,8.6,92,29.97,10.0,Calm,Calm,-,N/A,,Clear,0,2012-10-28 14:36:00
6:56 AM,10.4,6.8,85,29.97,10.0,Calm,Calm,-,N/A,,Clear,0,2012-10-28 14:56:00
7:16 AM,10.4,6.8,85,29.97,10.0,Calm,Calm,-,N/A,,Clear,0,2012-10-28 15:16:00
7:36 AM,10.4,3.2,73,29.98,10.0,Calm,Calm,-,N/A,,Clear,0,2012-10-28 15:36:00
7:56 AM,8.6,5.0,85,29.98,10.0,Calm,Calm,-,N/A,,Clear,0,2012-10-28 15:56:00
8:16 AM,8.6,6.8,92,29.97,10.0,Calm,Calm,-,N/A,,Clear,0,2012-10-28 16:16:00
8:36 AM,10.4,6.8,85,29.98,10.0,Calm,Calm,-,N/A,,Clear,0,2012-10-28 16:36:00
8:56 AM,10.4,8.6,92,29.98,10.0,Calm,Calm,-,N/A,,Clear,0,2012-10-28 16:56:00
9:16 AM,10.4,5.0,79,29.98,10.0,Calm,Calm,-,N/A,,Clear,0,2012-10-28 17:16:00
9:36 AM,10.4,5.0,79,29.98,10.0,Calm,Calm,-,N/A,,Clear,0,2012-10-28 17:36:00
9:56 AM,10.4,6.8,85,29.98,10.0,Calm,Calm,-,N/A,,Clear,0,2012-10-28 17:56:00
10:16 AM,10.4,6.8,85,29.99,10.0,Calm,Calm,-,N/A,,Clear,0,2012-10-28 18:16:00
10:36 AM,12.2,10.4,92,29.98,10.0,Calm,Calm,-,N/A,,Clear,0,2012-10-28 18:36:00
10:56 AM,15.8,12.2,86,29.98,10.0,Calm,Calm,-,N/A,,Clear,0,2012-10-28 18:56:00
11:16 AM,17.6,14.0,86,29.98,10.0,Calm,Calm,-,N/A,,Clear,0,2012-10-28 19:16:00
11:36 AM,19.4,15.8,86,29.98,10.0,Calm,Calm,-,N/A,,Clear,0,2012-10-28 19:36:00
11:56 AM,23.0,15.8,74,29.97,10.0,Calm,Calm,-,N/A,,Clear,0,2012-10-28 19:56:00
12:16 PM,24.8,15.8,69,29.98,10.0,Calm,Calm,-,N/A,,Clear,0,2012-10-28 20:16:00
12:36 PM,26.6,15.8,64,29.98,10.0,Calm,Calm,-,N/A,,Clear,0,2012-10-28 20:36:00
12:56 PM,28.4,14.0,55,29.98,10.0,Calm,Calm,-,N/A,,Clear,0,2012-10-28 20:56:00
1:16 PM,30.2,15.8,55,29.98,10.0,Calm,Calm,-,N/A,,Clear,0,2012-10-28 21:16:00
1:36 PM,30.2,15.8,55,29.98,10.0,Calm,Calm,-,N/A,,Clear,0,2012-10-28 21:36:00
1:56 PM,32.0,17.6,55,29.98,10.0,Calm,Calm,-,N/A,,Clear,0,2012-10-28 21:56:00
2:16 PM,32.0,17.6,55,29.97,10.0,Calm,Calm,-,N/A,,Clear,0,2012-10-28 22:16:00
2:36 PM,30.2,15.8,55,29.98,10.0,Calm,Calm,-,N/A,,Clear,0,2012-10-28 22:36:00
2:56 PM,30.2,17.6,60,29.98,10.0,Calm,Calm,-,N/A,,Clear,0,2012-10-28 22:56:00
3:16 PM,30.2,17.6,60,29.97,10.0,South,3.5,-,N/A,,Clear,170,2012-10-28 23:16:00
3:36 PM,32.0,17.6,55,29.97,10.0,South,3.5,-,N/A,,Clear,180,2012-10-28 23:36:00
3:56 PM,32.0,17.6,55,29.97,10.0,Calm,Calm,-,N/A,,Clear,0,2012-10-28 23:56:00
4:16 PM,32.0,17.6,55,29.97,10.0,Calm,Calm,-,N/A,,Clear,0,2012-10-29 00:16:00
4:36 PM,30.2,17.6,60,29.97,10.0,Calm,Calm,-,N/A,,Clear,0,2012-10-29 00:36:00
4:56 PM,30.2,17.6,60,29.97,10.0,Calm,Calm,-,N/A,,Clear,0,2012-10-29 00:56:00
5:16 PM,30.2,17.6,60,29.97,10.0,Calm,Calm,-,N/A,,Clear,0,2012-10-29 01:16:00
5:36 PM,28.4,17.6,64,29.97,10.0,Calm,Calm,-,N/A,,Clear,0,2012-10-29 01:36:00
5:56 PM,28.4,17.6,64,29.97,10.0,Calm,Calm,-,N/A,,Clear,0,2012-10-29 01:56:00
6:16 PM,28.4,17.6,64,29.97,10.0,Calm,Calm,-,N/A,,Clear,0,2012-10-29 02:16:00
6:36 PM,26.6,17.6,69,29.98,10.0,Calm,Calm,-,N/A,,Clear,0,2012-10-29 02:36:00
6:56 PM,24.8,15.8,69,29.97,10.0,Calm,Calm,-,N/A,,Clear,0,2012-10-29 02:56:00
7:16 PM,23.0,15.8,74,29.98,10.0,Calm,Calm,-,N/A,,Clear,0,2012-10-29 03:16:00
7:36 PM,23.0,15.8,74,29.98,10.0,Calm,Calm,-,N/A,,Clear,0,2012-10-29 03:36:00
7:56 PM,21.2,17.6,86,29.97,10.0,Calm,Calm,-,N/A,,Clear,0,2012-10-29 03:56:00
8:16 PM,19.4,15.8,86,29.98,10.0,Calm,Calm,-,N/A,,Clear,0,2012-10-29 04:16:00
8:36 PM,19.4,14.0,80,29.98,10.0,Calm,Calm,-,N/A,,Clear,0,2012-10-29 04:36:00
8:56 PM,19.4,12.2,74,29.98,10.0,Calm,Calm,-,N/A,,Clear,0,2012-10-29 04:56:00
9:16 PM,17.6,12.2,79,29.98,10.0,Calm,Calm,-,N/A,,Clear,0,2012-10-29 05:16:00
9:36 PM,17.6,12.2,79,29.98,10.0,Calm,Calm,-,N/A,,Clear,0,2012-10-29 05:36:00
9:56 PM,15.8,15.8,100,29.98,10.0,Calm,Calm,-,N/A,,Clear,0,2012-10-29 05:56:00
10:16 PM,15.8,12.2,86,29.98,10.0,East,3.5,-,N/A,,Clear,100,2012-10-29 06:16:00
10:36 PM,15.8,12.2,86,29.98,10.0,Calm,Calm,-,N/A,,Clear,0,2012-10-29 06:36:00
10:56 PM,17.6,14.0,86,29.98,10.0,Calm,Calm,-,N/A,,Clear,0,2012-10-29 06:56:00
11:16 PM,12.2,10.4,92,29.98,10.0,Calm,Calm,-,N/A,,Clear,0,2012-10-29 07:16:00
11:36 PM,15.8,12.2,86,29.99,10.0,Calm,Calm,-,N/A,,Clear,0,2012-10-29 07:36:00
11:56 PM,14.0,10.4,86,29.98,10.0,Calm,Calm,-,N/A,,Clear,0,2012-10-29 07:56:00